Location: Chena
(64.8152°N, 147.9227°W)
Time: 16:20:28
(UTC+00:00)

SR - Visible Passes

Search period start: 26 February 2021 00:00
Search period end: 08 March 2021 00:00
Orbit: 573 x 882 km, 66.7° (Epoch: 25 February)

Date Brightness Start Highest point End Pass type
(mag) Time Alt. Az. Time Alt. Az. Time Alt. Az.
26 Feb ? 10:19:42 19° ENE 10:19:42 19° ENE 10:21:21 10° E visible
26 Feb ? 11:59:07 59° E 11:59:07 59° E 12:03:54 10° ESE visible
26 Feb ? 13:38:31 45° W 13:40:01 58° SW 13:45:51 10° SE visible
26 Feb ? 15:17:56 15° WNW 15:21:19 24° WSW 15:25:56 10° SSW visible
27 Feb ? 11:10:58 31° E 11:10:58 31° E 11:13:59 10° E visible
27 Feb ? 12:50:24 73° SSW 12:50:24 73° SSW 12:56:15 10° SE visible
27 Feb ? 14:29:49 26° W 14:31:55 33° SW 14:37:10 10° S visible
27 Feb ? 16:10:44 10° W 16:12:31 11° WSW 16:14:18 10° WSW visible
28 Feb ? 06:48:38 10° SSW 06:48:58 12° SSW 06:48:58 12° SSW visible
28 Feb?08:43:37ENE08:43:37ENE08:28:32WSWvisible
28 Feb ? 10:23:03 15° E 10:23:03 15° E 10:24:02 10° E visible
28 Feb ? 12:02:30 44° ESE 12:02:30 44° ESE 12:06:30 10° ESE visible
28 Feb ? 13:41:57 44° WSW 13:42:24 45° SW 13:48:01 10° SSE visible
28 Feb ? 15:21:24 15° W 15:23:22 17° WSW 15:27:06 10° SSW visible
01 Mar ? 04:23:03 10° ESE 04:23:22 10° ESE 04:23:22 10° ESE visible
01 Mar ? 05:59:31 10° S 06:02:55 28° SSE 06:02:55 28° SSE visible
01 Mar ? 07:40:19 10° SW 07:42:29 25° SW 07:42:29 25° SW visible
01 Mar?09:35:29E09:35:29E09:22:03Wvisible
01 Mar ? 11:14:58 20° ESE 11:14:58 20° ESE 11:16:38 10° ESE visible
01 Mar ? 12:54:27 43° SSE 12:54:27 43° SSE 12:58:36 10° SE visible
01 Mar ? 14:33:55 25° WSW 14:34:05 25° WSW 14:38:47 10° S visible
02 Mar ? 05:10:45 10° SSE 05:14:55 23° ESE 05:16:34 20° E visible
02 Mar ? 06:50:45 10° SW 06:56:06 58° SE 06:56:06 58° SE visible
02 Mar ? 08:32:34 10° WSW 08:35:38 34° W 08:35:38 34° W visible
02 Mar ? 10:14:57 10° WNW 10:27:55 - E 10:15:09 11° WNW visible
02 Mar ? 12:07:26 19° SE 12:07:26 19° SE 12:09:00 10° SE visible
02 Mar ? 13:46:58 26° SSW 13:46:58 26° SSW 13:49:58 10° S visible
02 Mar ? 15:26:29 11° WSW 15:26:29 11° WSW 15:27:25 10° WSW visible
03 Mar ? 04:22:34 10° SE 04:25:42 16° ESE 04:28:57 10° ENE visible
03 Mar ? 06:01:23 10° SSW 06:06:31 43° SE 06:09:13 26° ENE visible
03 Mar ? 07:42:45 10° WSW 07:48:21 87° SSE 07:48:43 79° E visible
03 Mar ? 09:25:03 10° W 09:28:12 35° WNW 09:28:12 35° WNW visible
03 Mar ? 11:07:23 10° WNW 11:20:57 - ESE 11:07:41 12° WNW visible
03 Mar ? 13:00:31 11° SSE 13:00:31 11° SSE 13:00:48 10° SSE visible
04 Mar ? 05:12:18 10° S 05:17:03 31° ESE 05:21:50 11° ENE visible
04 Mar ? 06:53:02 10° SW 06:58:34 72° SE 07:01:17 33° ENE visible
04 Mar ? 08:35:09 10° W 08:40:45 76° NNW 08:40:45 76° NNW visible
04 Mar ? 10:17:32 10° WNW 10:20:12 29° WNW 10:20:12 29° WNW visible
05 Mar ? 04:23:35 10° SSE 04:27:43 22° ESE 04:32:02 10° ENE visible
05 Mar ? 06:03:29 10° SW 06:08:52 56° SE 06:13:30 16° ENE visible
05 Mar ? 07:45:16 10° WSW 07:50:56 83° NNW 07:52:55 44° ENE visible
05 Mar ? 09:27:39 10° W 09:32:21 59° WNW 09:32:21 59° WNW visible
05 Mar ? 11:09:56 10° WNW 11:11:47 21° WNW 11:11:47 21° WNW visible
06 Mar ? 05:14:09 10° SSW 05:19:16 42° SE 05:24:45 10° ENE visible
06 Mar ? 06:55:27 10° WSW 07:01:04 86° SSE 07:04:51 23° ENE visible
06 Mar ? 08:37:45 10° W 08:43:30 74° N 08:44:16 65° NE visible
06 Mar ? 10:20:06 10° WNW 10:23:41 40° WNW 10:23:41 40° WNW visible
06 Mar ? 12:02:17 10° WNW 12:03:06 14° WNW 12:03:06 14° WNW visible
07 Mar ? 04:25:04 10° S 04:29:49 30° ESE 04:34:49 10° ENE visible
07 Mar ? 06:05:45 10° SW 06:11:18 71° SE 06:16:36 13° ENE visible
07 Mar ? 07:47:50 10° W 07:53:34 77° N 07:56:01 37° ENE visible
07 Mar ? 09:30:15 10° WNW 09:35:25 70° NW 09:35:25 70° NW visible
07 Mar ? 11:12:27 10° WNW 11:14:50 25° WNW 11:14:50 25° WNW visible
